Lid_Strength_Index
-0 -0 4 6 10 11 14 13 10 11 10 7 6 7 8 7 9 12 2 1 -0 0 -0 -1 -1 -1 -1 -1 -1 -1 -1 -1 -1 -1 -1 -1 -1 -1 -1 -1 -1 -1 -1 -1 -1 -1 -1 -1 -1
3 2 5 8 12 15 14 10 11 9 7 6 6 6 7 9 5 4 3 0 -0 -0 0 -0 -1 -1 -1 -1 -1 -1 -1 -1 -1 -1 -1 -1 -1 -1 -1 -1 -1 -1 -1 -1 -1 -1 -1 -1 -1
3 5 7 10 13 14 14 10 10 8 6 7 7 5 6 7 4 3 1 0 -0 0 0 0 -1 -1 -1 -1 -1 -1 -1 -1 -1 -1 -1 -1 -1 -1 -1 -1 -1 -1 -1 -1 -1 -1 -1 -1 -1
6 7 8 11 13 12 11 9 8 8 7 6 6 8 5 2 3 2 0 -0 0 0 0 -0 -1 -1 -1 -1 -1 -1 -1 -1 -1 -1 -1 -1 -1 -1 -2 -1 -1 -1 -1 -1 -1 -1 -1 -1 -1
8 9 12 13 12 11 9 8 7 9 8 8 6 8 7 3 1 1 1 0 1 0 0 -0 -1 -1 -1 -1 -1 -1 -1 -2 -1 -1 -1 -1 -2 -2 -2 -1 -1 -1 -1 -1 -1 -1 -2 -2 -1
10 10 14 15 12 10 9 7 7 8 8 7 7 8 7 2 2 1 0 0 -0 0 -0 0 -1 -1 -1 -2 -2 -2 -2 -2 -2 -2 -2 -2 -2 -2 -2 -1 -1 -1 -1 -1 -1 -2 -2 -2 -2
11 12 14 13 12 11 9 7 8 8 8 8 6 9 6 4 2 2 1 0 0 -0 0 0 0 -1 -1 -1 -2 -2 -2 -2 -2 -2 -2 -2 -2 -2 -2 -2 -2 -2 -2 -2 -2 -2 -3 -3 -2
9 10 11 11 11 11 8 8 7 7 8 4 4 9 9 4 1 1 1 1 1 0 -0 0 0 0 0 0 -1 -2 -2 -2 -2 -2 -2 -2 -2 -2 -2 -2 -2 -3 -3 -2 -3 -4 -4 -3 -2
8 12 14 12 11 10 7 9 7 4 6 5 5 5 4 2 1 2 2 2 2 1 0 0 -0 0 0 -0 -1 -2 -1 -2 -2 -1 -1 -1 -1 -1 -2 -4 -5 -4 -3 -3 -4 -4 -3 -2 -2
10 13 12 9 8 9 8 8 6 7 7 7 6 4 3 2 3 3 3 3 3 2 2 1 0 0 -0 -1 -0 -0 -1 -1 -1 -0 -0 -0 -0 -1 -1 -2 -3 -3 -3 -3 -3 -2 -1 -1 -2
12 13 11 10 7 7 7 8 6 7 9 7 7 5 4 3 3 4 3 3 3 2 1 1 1 0 -0 -0 1 1 -0 -0 -0 -0 -0 0 -0 0 1 1 1 0 -1 0 -0 -1 -1 -1 -1
12 10 10 9 6 8 9 7 7 6 7 4 4 4 4 4 4 4 3 3 2 2 1 1 1 2 2 4 3 1 1 1 1 1 1 1 1 1 1 2 2 1 1 1 1 0 -1 -1 -2
12 10 9 8 7 9 7 7 7 7 5 4 4 4 4 4 4 4 3 2 3 4 3 2 3 4 5 4 5 3 2 2 2 1 1 0 1 1 1 2 2 2 1 2 2 1 1 1 1
10 10 10 9 9 9 8 9 6 6 5 5 5 5 4 4 4 3 3 4 3 4 4 5 5 3 3 3 2 2 1 2 1 1 1 0 1 1 2 1 2 1 1 1 2 2 1 1 1
10 10 10 10 9 9 7 9 9 6 5 6 5 5 5 5 3 3 3 3 4 3 3 3 3 2 3 2 2 2 1 1 2 2 1 1 2 2 2 2 2 1 1 1 1 1 1 1 1
11 12 14 11 9 8 8 11 8 6 6 7 6 6 6 5 4 3 3 3 3 4 4 2 -0 2 3 3 2 1 2 3 3 2 2 3 1 0 1 1 1 1 0 1 1 2 2 2 2
12 14 14 12 10 9 11 12 8 6 6 7 7 6 6 5 4 3 3 3 2 4 3 3 2 2 2 1 2 3 3 4 4 4 3 1 1 2 2 2 2 2 2 1 1 0 1 1 1
14 13 13 13 11 11 12 13 10 7 7 8 7 6 6 6 5 4 2 2 2 2 2 2 2 2 1 2 3 3 4 4 3 2 2 2 2 2 2 2 2 2 2 2 2 2 1 1 1
11 12 12 11 10 12 12 11 9 8 8 8 7 7 7 6 6 4 3 3 3 2 3 2 3 2 1 2 2 3 3 4 3 2 1 2 2 2 2 3 2 2 3 3 2 2 2 2 1
11 13 13 11 10 10 11 10 9 8 9 8 8 7 7 7 6 5 4 3 4 3 3 3 2 2 2 2 3 4 5 3 2 2 3 2 2 2 1 2 2 3 3 3 3 2 2 2 2
12 12 12 12 11 11 11 12 11 9 8 7 7 6 6 7 7 6 5 4 4 3 3 2 2 2 2 3 4 5 4 3 3 3 3 3 2 2 2 2 2 3 3 4 3 3 3 3 2
13 10 10 11 12 15 12 16 13 11 9 8 8 7 6 6 5 5 5 4 4 3 2 2 3 3 3 4 4 4 4 4 3 3 3 3 3 3 2 2 3 3 3 3 3 2 3 2 4
11 10 11 11 13 15 13 14 14 11 11 9 8 7 6 5 5 5 5 4 4 3 2 2 3 3 4 4 4 3 3 3 3 3 3 3 4 4 3 3 3 3 3 2 2 3 4 4 4
9 11 12 13 15 17 15 14 14 13 10 10 8 8 6 5 5 5 4 4 4 3 2 3 3 4 4 3 2 3 3 3 4 4 4 5 5 5 4 3 3 3 3 3 2 3 4 4 4
11 14 16 17 17 17 14 14 13 11 10 9 8 7 7 5 5 5 5 5 4 4 3 4 5 5 4 3 3 3 3 3 4 4 5 5 5 5 5 3 3 3 2 2 2 3 3 3 3
13 14 16 18 18 17 13 15 13 9 9 8 7 6 6 6 5 5 5 5 5 4 5 6 5 4 4 4 4 3 3 4 4 4 4 5 6 6 4 3 2 2 2 2 3 4 4 3 3
12 14 13 15 16 17 15 13 10 9 9 9 8 7 7 6 5 5 5 5 6 6 6 6 5 5 4 4 3 3 4 4 4 4 4 5 5 4 3 3 3 3 3 3 3 4 3 3 3
11 11 14 15 18 19 16 15 13 11 10 9 8 8 6 6 5 5 5 6 7 7 6 6 6 5 4 3 3 3 4 4 4 4 5 5 5 4 3 3 3 3 3 3 3 3 3 3 3
11 13 14 14 15 17 18 16 11 10 9 9 9 8 8 8 7 6 6 7 7 7 7 6 6 4 4 4 4 4 4 4 5 5 5 5 4 3 3 3 3 4 4 3 3 3 3 3 3
11 13 14 15 16 16 16 15 10 10 10 9 9 9 9 9 8 7 7 7 7 7 7 6 5 5 4 4 4 4 4 4 5 6 5 4 4 3 3 3 4 4 4 3 3 4 3 3 3